Skip Navigation Links
NOAA logo - Click to go to the NOAA homepage
NOAA's National Weather Service
Alaska Aviation Weather Unit
  NWS logo - Click to go to the NWS homepage
Left Navbar Graphic     21 AKDT = 05 GMT

   
NOAA is celebrating 200 years of science, service, and stewardship. Visit the NOAA 200th celebration Web site to learn more.
USA.gov is the U.S. Government's official Web portal to all Federal, state and local government Web resources and services.
Facebook
NWS on Facebook

Important Change Regarding the AAWU Web Presence

 

Over the last several months, the AAWU has been working to navigate its webpages to a nationally supported server. Security, as well as other needs, have necessitated the change.  In the process, we have made an effort to enhance the functionality of our website, as well as some of our products. As of June 27, 2017, aawu.arh.noaa.gov will be discontinued. The new AAWU web address is weather.gov/aawu. It is now live and will run in-parallel with the old site until it is discontinued. Please send any feedback or questions regarding the new webpages to nws.ar.aawu.webauthors@noaa.gov.  Thank you for your patience during this time of transition.
AAWU Home :: Display TAF Add Bookmark
METAR PABL 242356Z AUTO 21008KT 10SM FEW034 BKN110 11/03 A3014 RMK
 AO2 SLP208 T01110028 10111 20094 58005=

METAR PABL 250056Z AUTO 19008KT 10SM FEW110 12/03 A3012 RMK AO2 SLP203
     T01220028=

METAR PABL 250156Z AUTO 21010KT 10SM SCT120 12/03 A3012 RMK AO2 SLP201
     T01220028=

METAR PABL 250256Z AUTO 19007KT 10SM CLR 13/03 A3010 RMK AO2 SLP195
 T01330028 58014=

METAR PABL 250356Z AUTO 20008KT 10SM FEW050 14/03 A3008 RMK AO2 SLP189
     T01440033=

METAR PABL 250456Z AUTO 20006KT 10SM FEW048 14/04 A3007 RMK AO2 SLP186
     T01390039=


NOAA's National Weather Service
Alaska Aviation Weather Unit
6930 Sand Lake Road
Anchorage, AK 99502-1845
Disclaimer
Credits
Glossary
Privacy Policy
About Us
Career Opportunities
Contact AAWU Internet Services Site last modified: April, 17th 2012